| time (UTC) | temp F | wind direction | speed knots | gust knots | rain 1hr in | rain 24hr in | rain mn in | humidity % | barometer mb |
| 20260508025403 | 75 | 282 | 2.6 | 6.1 | 0.00 | 0.00 | 0.00 | 63 | 1014.2 |
| 20260508024503 | 76 | 294 | 2.6 | 6.1 | 0.00 | 0.00 | 0.00 | 61 | 1014.1 |
| 20260508023603 | 77 | 308 | 3.5 | 8.7 | 0.00 | 0.00 | 0.00 | 59 | 1014.0 |
| 20260508022703 | 78 | 291 | 2.6 | 6.1 | 0.00 | 0.00 | 0.00 | 58 | 1013.9 |
| 20260508021803 | 79 | 318 | 3.5 | 7.8 | 0.00 | 0.00 | 0.00 | 58 | 1013.9 |
| 20260508020903 | 80 | 301 | 3.5 | 7.8 | 0.00 | 0.00 | 0.00 | 56 | 1013.9 |
| 20260508020003 | 80 | 309 | 3.5 | 7.8 | 0.00 | 0.00 | 0.00 | 55 | 1013.9 |
| 20260508015403 | 81 | 302 | 3.5 | 8.7 | 0.00 | 0.00 | 0.00 | 54 | 1013.9 |
| 20260508014503 | 82 | 324 | 4.3 | 8.7 | 0.00 | 0.00 | 0.00 | 53 | 1013.9 |
| 20260508013603 | 82 | 325 | 6.1 | 11.3 | 0.00 | 0.00 | 0.00 | 52 | 1013.9 |
| 20260508012703 | 83 | 321 | 5.2 | 9.6 | 0.00 | 0.00 | 0.00 | 50 | 1013.8 |
| 20260508011824 | 84 | 328 | 4.3 | 10.4 | 0.00 | 0.00 | 0.00 | 49 | 1013.9 |
| 20260508010924 | 86 | 318 | 4.3 | 9.6 | 0.00 | 0.00 | 0.00 | 47 | 1013.9 |
| 20260508010003 | 87 | 312 | 4.3 | 7.8 | 0.00 | 0.00 | 0.00 | 48 | 1013.8 |
| 20260508005403 | 87 | 302 | 4.3 | 7.8 | 0.00 | 0.00 | 0.00 | 47 | 1013.8 |
| 20260508004503 | 87 | 299 | 2.6 | 7.0 | 0.00 | 0.00 | 0.00 | 47 | 1013.7 |
| 20260508003603 | 87 | 303 | 3.5 | 7.0 | 0.00 | 0.00 | 0.00 | 47 | 1013.8 |
| 20260508002703 | 87 | 284 | 2.6 | 7.0 | 0.00 | 0.00 | 0.00 | 47 | 1013.9 |
| 20260508001803 | 86 | 325 | 4.3 | 8.7 | 0.00 | 0.00 | 0.00 | 50 | 1013.9 |
| 20260508000903 | 86 | 318 | 3.5 | 8.7 | 0.00 | 0.00 | 0.00 | 49 | 1013.9 |
| 20260508000024 | 86 | 318 | 4.3 | 7.8 | 0.00 | 0.00 | 0.00 | 50 | 1013.9 |
| 20260507235424 | 86 | 307 | 4.3 | 7.8 | 0.00 | 0.00 | 0.00 | 50 | 1013.9 |
| 20260507234524 | 86 | 311 | 3.5 | 7.8 | 0.00 | 0.00 | 0.00 | 48 | 1014.0 |
| 20260507233624 | 86 | 321 | 4.3 | 8.7 | 0.00 | 0.00 | 0.00 | 49 | 1014.1 |
| 20260507232724 | 86 | 308 | 3.5 | 9.6 | 0.00 | 0.00 | 0.00 | 48 | 1014.2 |
| 20260507231803 | 85 | 309 | 3.5 | 8.7 | 0.00 | 0.00 | 0.00 | 50 | 1014.4 |
| 20260507230903 | 85 | 308 | 4.3 | 7.8 | 0.00 | 0.00 | 0.00 | 50 | 1014.5 |
| 20260507230024 | 84 | 312 | 4.3 | 9.6 | 0.00 | 0.00 | 0.00 | 50 | 1014.6 |
| 20260507225403 | 84 | 307 | 4.3 | 7.8 | 0.00 | 0.00 | 0.00 | 50 | 1014.7 |
| 20260507224503 | 84 | 311 | 4.3 | 8.7 | 0.00 | 0.00 | 0.00 | 51 | 1014.7 |
| 20260507223603 | 83 | 322 | 3.5 | 9.6 | 0.00 | 0.00 | 0.00 | 51 | 1014.8 |
| 20260507222703 | 82 | 340 | 4.3 | 10.4 | 0.00 | 0.00 | 0.00 | 52 | 1014.8 |
| 20260507221803 | 82 | 341 | 3.5 | 9.6 | 0.00 | 0.00 | 0.00 | 52 | 1015.0 |
| 20260507220903 | 82 | 329 | 3.5 | 8.7 | 0.00 | 0.00 | 0.00 | 53 | 1015.0 |
| 20260507220003 | 82 | 330 | 4.3 | 9.6 | 0.00 | 0.00 | 0.00 | 54 | 1015.3 |
| 20260507215403 | 81 | 332 | 4.3 | 10.4 | 0.00 | 0.00 | 0.00 | 53 | 1015.4 |
| 20260507214503 | 82 | 333 | 4.3 | 9.6 | 0.00 | 0.00 | 0.00 | 53 | 1015.4 |
| 20260507213603 | 82 | 329 | 3.5 | 9.6 | 0.00 | 0.00 | 0.00 | 54 | 1015.5 |
| 20260507212703 | 81 | 320 | 3.5 | 8.7 | 0.00 | 0.00 | 0.00 | 54 | 1015.8 |
| 20260507211803 | 81 | 319 | 4.3 | 9.6 | 0.00 | 0.00 | 0.00 | 56 | 1015.9 |
| 20260507210903 | 80 | 332 | 4.3 | 9.6 | 0.00 | 0.00 | 0.00 | 55 | 1016.0 |
| 20260507210003 | 80 | 332 | 3.5 | 7.8 | 0.00 | 0.00 | 0.00 | 57 | 1016.1 |
| 20260507205403 | 80 | 325 | 3.5 | 7.8 | 0.00 | 0.00 | 0.00 | 57 | 1016.2 |
| 20260507204503 | 80 | 320 | 3.5 | 7.0 | 0.00 | 0.00 | 0.00 | 56 | 1016.3 |
| 20260507203603 | 79 | 309 | 2.6 | 7.0 | 0.00 | 0.00 | 0.00 | 58 | 1016.4 |
| 20260507202703 | 79 | 323 | 3.5 | 10.4 | 0.00 | 0.00 | 0.00 | 58 | 1016.4 |
| 20260507201803 | 78 | 328 | 2.6 | 9.6 | 0.00 | 0.00 | 0.00 | 58 | 1016.6 |
| 20260507200903 | 78 | 308 | 3.5 | 7.8 | 0.00 | 0.00 | 0.00 | 57 | 1016.6 |
| 20260507200003 | 78 | 326 | 3.5 | 7.8 | 0.00 | 0.00 | 0.00 | 59 | 1016.7 |
| 20260507195403 | 78 | 318 | 4.3 | 7.8 | 0.00 | 0.00 | 0.00 | 60 | 1016.8 |
| 20260507194503 | 78 | 315 | 3.5 | 9.6 | 0.00 | 0.00 | 0.00 | 61 | 1017.0 |
| 20260507193603 | 77 | 322 | 2.6 | 7.8 | 0.00 | 0.00 | 0.00 | 62 | 1017.0 |
| 20260507192703 | 77 | 314 | 2.6 | 7.0 | 0.00 | 0.00 | 0.00 | 61 | 1016.9 |
| 20260507191803 | 77 | 299 | 2.6 | 7.0 | 0.00 | 0.00 | 0.00 | 62 | 1017.1 |
| 20260507190903 | 76 | 331 | 3.5 | 5.2 | 0.00 | 0.00 | 0.00 | 62 | 1017.3 |
| 20260507190004 | 76 | 327 | 3.5 | 8.7 | 0.00 | 0.00 | 0.00 | 62 | 1017.4 |
| 20260507185403 | 76 | 321 | 2.6 | 8.7 | 0.00 | 0.00 | 0.00 | 64 | 1017.3 |
| 20260507184504 | 75 | 310 | 2.6 | 7.0 | 0.00 | 0.00 | 0.00 | 65 | 1017.5 |
| 20260507183603 | 75 | 270 | 1.7 | 6.1 | 0.00 | 0.00 | 0.00 | 64 | 1017.6 |
| 20260507182703 | 74 | 306 | 2.6 | 7.0 | 0.00 | 0.00 | 0.00 | 65 | 1017.6 |
| 20260507181803 | 74 | 1 | 2.6 | 8.7 | 0.00 | 0.00 | 0.00 | 64 | 1017.6 |
| 20260507180903 | 74 | 327 | 2.6 | 6.1 | 0.00 | 0.00 | 0.00 | 67 | 1017.6 |
| 20260507180003 | 73 | 311 | 1.7 | 5.2 | 0.00 | 0.00 | 0.00 | 68 | 1017.7 |
| 20260507175403 | 73 | 301 | 2.6 | 6.1 | 0.00 | 0.00 | 0.00 | 68 | 1017.7 |
| 20260507174524 | 72 | 333 | 2.6 | 7.0 | 0.00 | 0.00 | 0.00 | 70 | 1017.8 |
| 20260507173603 | 71 | 310 | 2.6 | 7.0 | 0.00 | 0.00 | 0.00 | 70 | 1017.8 |
| 20260507172703 | 71 | 300 | 2.6 | 4.3 | 0.00 | 0.00 | 0.00 | 70 | 1017.8 |
| 20260507171803 | 70 | 298 | 2.6 | 6.1 | 0.00 | 0.00 | 0.00 | 71 | 1017.8 |
| 20260507170903 | 69 | 285 | 2.6 | 5.2 | 0.00 | 0.00 | 0.00 | 72 | 1017.9 |
| 20260507170024 | 69 | 281 | 2.6 | 5.2 | 0.00 | 0.00 | 0.00 | 74 | 1018.0 |
| 20260507165403 | 68 | 302 | 2.6 | 4.3 | 0.00 | 0.00 | 0.00 | 74 | 1018.0 |
| 20260507164503 | 68 | 304 | 1.7 | 5.2 | 0.00 | 0.00 | 0.00 | 76 | 1018.2 |
| 20260507163624 | 67 | 301 | 1.7 | 4.3 | 0.00 | 0.00 | 0.00 | 77 | 1018.1 |
| 20260507162703 | 66 | 294 | 1.7 | 4.3 | 0.00 | 0.00 | 0.00 | 78 | 1018.1 |
| 20260507161824 | 66 | 296 | 1.7 | 4.3 | 0.00 | 0.00 | 0.00 | 79 | 1018.2 |
| 20260507160903 | 65 | 296 | 0.9 | 2.6 | 0.00 | 0.00 | 0.00 | 81 | 1018.4 |
| 20260507160003 | 64 | 300 | 1.7 | 3.5 | 0.00 | 0.00 | 0.00 | 82 | 1018.3 |
| 20260507155403 | 63 | 313 | 1.7 | 4.3 | 0.00 | 0.00 | 0.00 | 83 | 1018.4 |
| 20260507154503 | 63 | 319 | 1.7 | 3.5 | 0.00 | 0.00 | 0.00 | 84 | 1018.3 |
| 20260507153603 | 62 | 319 | 2.6 | 4.3 | 0.00 | 0.00 | 0.00 | 86 | 1018.4 |
| 20260507152703 | 61 | 302 | 2.6 | 6.1 | 0.00 | 0.00 | 0.00 | 87 | 1018.4 |
| 20260507151803 | 60 | 285 | 1.7 | 5.2 | 0.00 | 0.00 | 0.00 | 88 | 1018.6 |
| 20260507150903 | 60 | 289 | 2.6 | 6.1 | 0.00 | 0.00 | 0.00 | 88 | 1018.5 |
| 20260507150003 | 59 | 300 | 2.6 | 4.3 | 0.00 | 0.00 | 0.00 | 89 | 1018.5 |
| 20260507145403 | 59 | 287 | 2.6 | 6.1 | 0.00 | 0.00 | 0.00 | 89 | 1018.6 |
| 20260507144503 | 58 | 287 | 2.6 | 5.2 | 0.00 | 0.00 | 0.00 | 90 | 1018.5 |
| 20260507143603 | 58 | 302 | 2.6 | 6.1 | 0.00 | 0.00 | 0.00 | 90 | 1018.4 |
| 20260507142724 | 58 | 306 | 2.6 | 6.1 | 0.00 | 0.00 | 0.00 | 91 | 1018.4 |
| 20260507141824 | 57 | 297 | 1.7 | 2.6 | 0.00 | 0.00 | 0.00 | 91 | 1018.3 |
| 20260507140924 | 56 | 295 | 0.9 | 2.6 | 0.00 | 0.00 | 0.00 | 92 | 1018.3 |
| 20260507140024 | 55 | 296 | 0.9 | 2.6 | 0.00 | 0.00 | 0.00 | 92 | 1018.1 |
| 20260507135424 | 55 | 294 | 0.9 | 2.6 | 0.00 | 0.00 | 0.00 | 91 | 1017.9 |
| 20260507134524 | 54 | 297 | 0.9 | 3.5 | 0.00 | 0.00 | 0.00 | 91 | 1017.8 |
| 20260507133624 | 54 | 309 | 0.9 | 3.5 | 0.00 | 0.00 | 0.00 | 91 | 1017.8 |
| 20260507132724 | 54 | 322 | 0.9 | 3.5 | 0.00 | 0.00 | 0.00 | 91 | 1017.8 |
| 20260507131824 | 54 | 311 | 0.9 | 2.6 | 0.00 | 0.00 | 0.00 | 90 | 1017.7 |
| 20260507130926 | 54 | 305 | 0.9 | 2.6 | 0.00 | 0.00 | 0.00 | 90 | 1017.6 |
| 20260507130003 | 54 | 308 | 0.0 | 1.7 | 0.00 | 0.00 | 0.00 | 90 | 1017.6 |
| 20260507125403 | 54 | 309 | 0.9 | 3.5 | 0.00 | 0.00 | 0.00 | 90 | 1017.4 |
| 20260507124503 | 54 | 303 | 0.9 | 3.5 | 0.00 | 0.00 | 0.00 | 90 | 1017.5 |
| 20260507123603 | 54 | 303 | 0.9 | 2.6 | 0.00 | 0.00 | 0.00 | 90 | 1017.5 |
| 20260507122705 | 54 | 303 | 0.9 | 2.6 | 0.00 | 0.00 | 0.00 | 90 | 1017.4 |
| 20260507121824 | 54 | 303 | 0.0 | 1.7 | 0.00 | 0.00 | 0.00 | 90 | 1017.5 |
| 20260507120924 | 54 | 302 | 0.9 | 2.6 | 0.00 | 0.00 | 0.00 | 90 | 1017.4 |
| 20260507120024 | 54 | 302 | 0.9 | 2.6 | 0.00 | 0.00 | 0.00 | 90 | 1017.5 |
| 20260507115424 | 54 | 300 | 0.9 | 1.7 | 0.00 | 0.00 | 0.00 | 90 | 1017.5 |
| 20260507114524 | 54 | 306 | 0.9 | 1.7 | 0.00 | 0.00 | 0.00 | 89 | 1017.6 |
| 20260507113603 | 54 | 307 | 0.9 | 2.6 | 0.00 | 0.00 | 0.00 | 89 | 1017.5 |
| 20260507112703 | 54 | 300 | 0.9 | 2.6 | 0.00 | 0.00 | 0.00 | 89 | 1017.5 |
| 20260507111803 | 54 | 303 | 0.9 | 2.6 | 0.00 | 0.00 | 0.00 | 89 | 1017.5 |
| 20260507110903 | 55 | 313 | 0.9 | 1.7 | 0.00 | 0.00 | 0.00 | 88 | 1017.5 |
| 20260507110003 | 55 | 287 | 0.9 | 3.5 | 0.00 | 0.00 | 0.00 | 88 | 1017.3 |
| 20260507105403 | 55 | 272 | 1.7 | 3.5 | 0.00 | 0.00 | 0.00 | 88 | 1017.4 |
| 20260507104504 | 55 | 271 | 0.9 | 3.5 | 0.00 | 0.00 | 0.00 | 88 | 1017.4 |
| 20260507103603 | 55 | 271 | 0.9 | 2.6 | 0.00 | 0.00 | 0.00 | 88 | 1017.4 |
| 20260507102703 | 56 | 271 | 0.9 | 3.5 | 0.00 | 0.00 | 0.00 | 87 | 1017.4 |
| 20260507101803 | 56 | 271 | 0.9 | 3.5 | 0.00 | 0.00 | 0.00 | 87 | 1017.4 |
| 20260507100903 | 56 | 276 | 1.7 | 5.2 | 0.00 | 0.00 | 0.00 | 87 | 1017.3 |
| 20260507100004 | 56 | 297 | 1.7 | 3.5 | 0.00 | 0.00 | 0.00 | 87 | 1017.4 |
| 20260507095403 | 56 | 296 | 1.7 | 3.5 | 0.00 | 0.00 | 0.00 | 87 | 1017.3 |
| 20260507094503 | 57 | 296 | 1.7 | 3.5 | 0.00 | 0.00 | 0.00 | 87 | 1017.4 |
| 20260507093603 | 57 | 298 | 0.9 | 3.5 | 0.00 | 0.00 | 0.00 | 87 | 1017.3 |
| 20260507092703 | 57 | 299 | 0.9 | 3.5 | 0.00 | 0.00 | 0.00 | 87 | 1017.5 |
| 20260507091804 | 58 | 301 | 0.0 | 2.6 | 0.00 | 0.00 | 0.00 | 88 | 1017.6 |
| 20260507090903 | 58 | 301 | 0.0 | 1.7 | 0.00 | 0.00 | 0.00 | 87 | 1017.5 |
| 20260507090004 | 58 | 301 | 0.0 | 1.7 | 0.00 | 0.00 | 0.00 | 87 | 1017.5 |
| 20260507085403 | 58 | 301 | 0.0 | 1.7 | 0.00 | 0.00 | 0.00 | 87 | 1017.5 |
| 20260507084524 | 58 | 301 | 0.9 | 1.7 | 0.00 | 0.00 | 0.00 | 87 | 1017.6 |
| 20260507083603 | 58 | 301 | 0.9 | 1.7 | 0.00 | 0.00 | 0.00 | 86 | 1017.4 |
| 20260507082703 | 58 | 304 | 0.9 | 4.3 | 0.00 | 0.00 | 0.00 | 86 | 1017.4 |
| 20260507081803 | 58 | 308 | 0.9 | 4.3 | 0.00 | 0.00 | 0.00 | 85 | 1017.4 |
| 20260507080903 | 59 | 313 | 0.9 | 2.6 | 0.00 | 0.00 | 0.00 | 85 | 1017.4 |
| 20260507080003 | 59 | 313 | 0.9 | 2.6 | 0.00 | 0.00 | 0.00 | 84 | 1017.4 |
| 20260507075403 | 59 | 313 | 0.9 | 2.6 | 0.00 | 0.00 | 0.00 | 84 | 1017.4 |
| 20260507074503 | 59 | 313 | 0.9 | 2.6 | 0.00 | 0.00 | 0.00 | 84 | 1017.5 |
| 20260507073603 | 59 | 313 | 0.9 | 2.6 | 0.00 | 0.00 | 0.00 | 84 | 1017.6 |
| 20260507072703 | 59 | 298 | 1.7 | 5.2 | 0.00 | 0.00 | 0.00 | 83 | 1017.6 |
| 20260507071803 | 59 | 290 | 1.7 | 3.5 | 0.00 | 0.00 | 0.00 | 83 | 1017.5 |
| 20260507070903 | 59 | 290 | 1.7 | 4.3 | 0.00 | 0.00 | 0.00 | 83 | 1017.5 |
| 20260507070005 | 60 | 290 | 1.7 | 3.5 | 0.00 | 0.00 | 0.00 | 82 | 1017.4 |
| 20260507065403 | 60 | 290 | 1.7 | 3.5 | 0.00 | 0.00 | 0.00 | 82 | 1017.4 |
| 20260507064503 | 60 | 290 | 0.9 | 2.6 | 0.00 | 0.00 | 0.00 | 82 | 1017.4 |
| 20260507063603 | 60 | 290 | 0.9 | 3.5 | 0.00 | 0.00 | 0.00 | 81 | 1017.3 |
| 20260507062703 | 60 | 290 | 0.9 | 2.6 | 0.00 | 0.00 | 0.00 | 80 | 1017.3 |
| 20260507061803 | 61 | 290 | 0.9 | 2.6 | 0.00 | 0.00 | 0.00 | 81 | 1017.3 |
| 20260507060903 | 61 | 290 | 0.9 | 2.6 | 0.00 | 0.00 | 0.00 | 80 | 1017.2 |
| 20260507060003 | 61 | 290 | 1.7 | 3.5 | 0.00 | 0.00 | 0.00 | 79 | 1017.3 |
| 20260507055403 | 62 | 290 | 1.7 | 3.5 | 0.00 | 0.00 | 0.00 | 79 | 1017.4 |
| 20260507054503 | 62 | 289 | 0.9 | 4.3 | 0.00 | 0.00 | 0.00 | 79 | 1017.3 |
| 20260507053603 | 63 | 290 | 1.7 | 4.3 | 0.00 | 0.00 | 0.00 | 79 | 1017.4 |
| 20260507052703 | 63 | 279 | 1.7 | 3.5 | 0.00 | 0.00 | 0.00 | 78 | 1017.5 |
| 20260507051803 | 63 | 271 | 1.7 | 3.5 | 0.00 | 0.00 | 0.00 | 78 | 1017.5 |
| 20260507050903 | 64 | 280 | 1.7 | 5.2 | 0.00 | 0.00 | 0.00 | 77 | 1017.4 |
| 20260507050003 | 64 | 277 | 0.9 | 5.2 | 0.00 | 0.00 | 0.00 | 79 | 1017.4 |
| 20260507045403 | 65 | 277 | 0.9 | 2.6 | 0.00 | 0.00 | 0.00 | 78 | 1017.3 |
| 20260507044503 | 65 | 277 | 0.9 | 1.7 | 0.00 | 0.00 | 0.00 | 78 | 1017.3 |
| 20260507043603 | 66 | 277 | 0.9 | 2.6 | 0.00 | 0.00 | 0.00 | 77 | 1017.3 |
| 20260507042703 | 66 | 279 | 0.9 | 3.5 | 0.00 | 0.00 | 0.00 | 77 | 1017.3 |
| 20260507041806 | 66 | 291 | 0.9 | 5.2 | 0.00 | 0.00 | 0.00 | 76 | 1017.1 |
| 20260507040903 | 67 | 271 | 1.7 | 3.5 | 0.00 | 0.00 | 0.00 | 75 | 1017.2 |
| 20260507040003 | 68 | 279 | 1.7 | 6.1 | 0.00 | 0.00 | 0.00 | 74 | 1017.2 |
| 20260507035403 | 68 | 308 | 1.7 | 6.1 | 0.00 | 0.00 | 0.00 | 73 | 1017.1 |
| 20260507034503 | 69 | 290 | 2.6 | 7.0 | 0.00 | 0.00 | 0.00 | 72 | 1017.0 |
| 20260507033603 | 70 | 294 | 2.6 | 5.2 | 0.00 | 0.00 | 0.00 | 71 | 1017.0 |
| 20260507032703 | 71 | 299 | 2.6 | 6.1 | 0.00 | 0.00 | 0.00 | 69 | 1016.9 |
| 20260507031803 | 72 | 288 | 2.6 | 4.3 | 0.00 | 0.00 | 0.00 | 66 | 1016.8 |
| 20260507030903 | 73 | 286 | 1.7 | 4.3 | 0.00 | 0.00 | 0.00 | 64 | 1016.7 |
| 20260507030003 | 74 | 285 | 1.7 | 3.5 | 0.00 | 0.00 | 0.00 | 62 | 1016.5 |